Tracking 27107 objects as of 22-Mar-2023
HD Live streaming from Space Station
objects crossing your sky now

BREEZE-M DEB (TANK)

Track BREEZE-M DEB (TANK) now!
10-day predictions


NORAD ID: 28395
Int'l Code: 2004-031C
Perigee: 320.7 km
Apogee: 15,000.5 km
Inclination: 49.4 °
Period: 275.7 minutes
Semi major axis: 14031 km
RCS: 6.5834 m2 (large)
Launch date: August 4, 2004
Source: Commonwealth of Independent States (former USSR) (CIS)
Launch site: TYURATAM MISSILE AND SPACE COMPLEX (TTMTR)

Note: This is SATELLITE DEBRIS
Your satellite tracking list
Your tracking list is empty




NASA's NSSDC Master Catalog

Two Line Element Set (TLE):
1 28395U 04031C   23080.47731399  .00003747  00000-0  80233-3 0  9991
2 28395  49.4392 308.4138 5231001 341.2982   5.1217  5.22327976341881
Source of the keplerian elements: AFSPC